TimeCDT,TemperatureF,Dew PointF,Humidity,Sea Level PressureIn,VisibilityMPH,Wind Direction,Wind SpeedMPH,Gust SpeedMPH,PrecipitationIn,Events,Conditions,WindDirDegrees,DateUTC
12:53 AM,64.9,59.0,81,30.16,10.0,South,5.8,-,N/A,,Mostly Cloudy,180,2013-10-30 05:53:00
1:53 AM,64.0,59.0,84,30.15,10.0,South,8.1,-,N/A,,Scattered Clouds,180,2013-10-30 06:53:00
2:53 AM,64.0,59.0,84,30.15,10.0,South,6.9,-,N/A,,Partly Cloudy,190,2013-10-30 07:53:00
3:53 AM,63.0,59.0,87,30.15,10.0,South,5.8,-,N/A,,Clear,190,2013-10-30 08:53:00
4:53 AM,63.0,59.0,87,30.16,10.0,South,6.9,-,N/A,,Clear,180,2013-10-30 09:53:00
5:53 AM,62.1,59.0,90,30.17,10.0,SSW,6.9,-,N/A,,Clear,200,2013-10-30 10:53:00
6:53 AM,62.1,59.0,90,30.17,10.0,South,6.9,-,N/A,,Clear,190,2013-10-30 11:53:00
7:53 AM,62.1,59.0,90,30.18,10.0,SSW,9.2,-,N/A,,Clear,200,2013-10-30 12:53:00
8:53 AM,64.9,61.0,87,30.19,10.0,South,9.2,-,N/A,,Clear,190,2013-10-30 13:53:00
9:53 AM,68.0,62.1,81,30.19,10.0,SSW,6.9,-,N/A,,Clear,200,2013-10-30 14:53:00
10:53 AM,70.0,62.1,76,30.18,10.0,SSW,11.5,-,N/A,,Clear,200,2013-10-30 15:53:00
11:53 AM,73.0,62.1,68,30.16,10.0,South,8.1,-,N/A,,Clear,170,2013-10-30 16:53:00
12:53 PM,73.0,63.0,71,30.14,10.0,South,8.1,-,N/A,,Clear,180,2013-10-30 17:53:00
1:08 PM,73.4,62.6,69,30.14,10.0,South,13.8,19.6,N/A,,Scattered Clouds,190,2013-10-30 18:08:00
1:53 PM,73.9,62.1,66,30.10,10.0,South,9.2,-,N/A,,Scattered Clouds,190,2013-10-30 18:53:00
2:53 PM,73.0,62.1,68,30.07,10.0,South,4.6,-,N/A,,Clear,180,2013-10-30 19:53:00
3:53 PM,72.0,62.1,71,30.06,10.0,SSE,4.6,-,N/A,,Clear,160,2013-10-30 20:53:00
4:53 PM,71.1,62.1,73,30.04,10.0,Calm,Calm,-,N/A,,Partly Cloudy,0,2013-10-30 21:53:00
5:53 PM,69.1,62.1,78,30.03,10.0,Calm,Calm,-,N/A,,Clear,0,2013-10-30 22:53:00
6:53 PM,69.1,62.1,78,30.02,10.0,SSE,5.8,-,N/A,,Clear,150,2013-10-30 23:53:00
7:53 PM,69.1,62.1,78,30.03,10.0,SSE,6.9,-,N/A,,Clear,160,2013-10-31 00:53:00
8:53 PM,68.0,60.1,76,30.02,10.0,South,4.6,-,N/A,,Clear,180,2013-10-31 01:53:00
9:53 PM,68.0,59.0,73,30.03,10.0,South,5.8,-,N/A,,Overcast,170,2013-10-31 02:53:00
10:53 PM,68.0,60.1,76,30.02,10.0,South,5.8,-,N/A,,Overcast,170,2013-10-31 03:53:00
11:53 PM,68.0,60.1,76,29.99,10.0,South,5.8,-,N/A,,Overcast,180,2013-10-31 04:53:00